Weather History for Wheeling, WV

Change the Weather History Date:

Sunday, March 24, 2013

  Actual Average Record
Temperature  
Mean Temperature 34 °F 43 °F  
Max Temperature 41 °F 52 °F 70 °F (1949)
Min Temperature 26 °F 34 °F 12 °F (2014)
Degree Days  
Heating Degree Days 31 22  
Month to date heating degree days 709 630  
Since 1 July heating degree days 4721 4797  
Cooling Degree Days 0    
Month to date cooling degree days 0  
Year to date cooling degree days 0  
Moisture  
Dew Point 25 °F    
Average Humidity 65    
Maximum Humidity 89    
Minimum Humidity 41    
Precipitation  
Precipitation 0.02 in 0.11 in 0.52 in (1993)
Month to date precipitation 1.02 2.32  
Sea Level Pressure  
Sea Level Pressure 29.68 in    
Wind  
Wind Speed 12 mph (ENE)    
Max Wind Speed 21 mph    
Max Gust Speed 26 mph    
Visibility 8 miles    
Events Fog , Snow    
T = Trace of Precipitation, MM = Missing Value Source: NWS Daily Summary

Daily Weather History Graph

Daily Weather History Graph

Search for Another Location

Airport:

Trip Planner

Search our weather history database for the weather conditions in past years. The results will help you decide how hot, cold, wet, or windy it might be!

Date:

Astronomy

Mar. 24, 2013 Rise Set
Actual Time 7:19 AM EDT 7:39 PM EDT
Civil Twilight 6:51 AM EDT 8:06 PM EDT
Nautical Twilight 6:20 AM EDT 8:38 PM EDT
Astronomical Twilight 5:47 AM EDT 9:10 PM EDT
Moon 5:05 PM EDT (3/24) 5:28 AM EDT (3/24)
Length of Visible Light 13h 14m
Length of Day
12h 19m
Waxing Gibbous, 91% of the Moon is Illuminated
Mar 24
Waxing Gibbous
Mar 27
Full
Apr 3
Last Quarter
Apr 10
New
Apr 18
First Quarter

Hourly Weather History & Observations

Time (EDT) Temp. Windchill Dew Point Humidity Pressure Visibility Wind Dir Wind Speed Gust Speed Precip Events Conditions
12:53 AM 30.0 °F 22.4 °F 19.9 °F 66% 30.00 in 10.0 mi ENE 8.1 mph - N/A   Clear
1:53 AM 28.9 °F 19.8 °F 19.9 °F 69% 29.98 in 10.0 mi NE 10.4 mph - N/A   Clear
2:53 AM 28.0 °F 19.3 °F 19.9 °F 72% 29.96 in 10.0 mi NE 9.2 mph - N/A   Clear
3:53 AM 28.0 °F 20.0 °F 19.0 °F 69% 29.96 in 10.0 mi ENE 8.1 mph - N/A   Clear
4:53 AM 28.0 °F 24.2 °F 19.0 °F 69% 29.96 in 10.0 mi East 3.5 mph - N/A   Clear
5:53 AM 27.0 °F 23.0 °F 19.0 °F 72% 29.96 in 10.0 mi NNE 3.5 mph - N/A   Clear
6:53 AM 26.1 °F 16.2 °F 19.0 °F 75% 29.95 in 10.0 mi NE 10.4 mph - N/A   Clear
7:53 AM 27.0 °F 18.7 °F 19.9 °F 75% 29.94 in 10.0 mi ENE 8.1 mph - N/A   Clear
8:53 AM 28.0 °F 17.5 °F 19.9 °F 72% 29.91 in 10.0 mi ENE 12.7 mph - N/A   Clear
9:53 AM 30.0 °F 20.5 °F 19.9 °F 66% 29.87 in 10.0 mi ENE 11.5 mph 19.6 mph N/A   Clear
10:53 AM 33.1 °F 25.5 °F 19.9 °F 59% 29.82 in 10.0 mi ENE 9.2 mph - N/A   Clear
11:53 AM 35.1 °F 26.9 °F 19.0 °F 52% 29.78 in 10.0 mi ENE 11.5 mph - N/A   Clear
12:53 PM 37.0 °F 27.7 °F 18.0 °F 46% 29.74 in 10.0 mi ENE 16.1 mph 26.5 mph N/A   Clear
1:53 PM 39.0 °F 31.4 °F 19.0 °F 45% 29.72 in 10.0 mi ENE 12.7 mph 21.9 mph N/A   Clear
2:53 PM 39.9 °F 32.9 °F 19.0 °F 43% 29.70 in 10.0 mi NNE 11.5 mph - N/A   Mostly Cloudy
3:53 PM 41.0 °F 33.5 °F 19.9 °F 43% 29.68 in 10.0 mi ENE 13.8 mph - N/A   Overcast
4:53 PM 41.0 °F 33.5 °F 19.0 °F 41% 29.63 in 10.0 mi ENE 13.8 mph - N/A   Overcast
5:53 PM 41.0 °F 33.1 °F 19.9 °F 43% 29.59 in 10.0 mi East 15.0 mph 21.9 mph N/A   Overcast
6:53 PM 37.0 °F 27.0 °F 26.1 °F 65% 29.60 in 7.0 mi ESE 18.4 mph 24.2 mph 0.00 in Snow Light Snow
7:01 PM 35.6 °F 25.2 °F 28.4 °F 75% 29.56 in 1.8 mi ESE 18.4 mph 24.2 mph 0.00 in Snow Light Snow
7:12 PM 33.8 °F 24.3 °F 28.4 °F 81% 29.56 in 0.5 mi ESE 13.8 mph - 0.00 in Fog , Snow Snow
7:25 PM 33.8 °F 23.9 °F 30.2 °F 87% 29.55 in 0.5 mi East 15.0 mph 21.9 mph 0.00 in Fog , Snow Light Snow
7:34 PM 33.8 °F 24.3 °F 30.2 °F 87% 29.54 in 0.8 mi East 13.8 mph - 0.00 in Snow Light Snow
7:41 PM 33.8 °F 25.3 °F 30.2 °F 87% 29.54 in 1.8 mi East 11.5 mph - 0.00 in Snow Light Snow
7:48 PM 33.8 °F 25.3 °F 30.2 °F 87% 29.54 in 2.5 mi ENE 11.5 mph 19.6 mph 0.00 in Snow Light Snow
7:53 PM 33.1 °F 24.4 °F 30.0 °F 89% 29.58 in 3.0 mi East 11.5 mph - 0.00 in Snow Light Snow
8:06 PM 33.8 °F 24.3 °F 30.2 °F 87% 29.54 in 9.0 mi East 13.8 mph - 0.00 in   Overcast
8:18 PM 33.8 °F 24.8 °F 30.2 °F 87% 29.54 in 10.0 mi East 12.7 mph 20.7 mph 0.00 in   Overcast
8:24 PM 33.8 °F 23.9 °F 30.2 °F 87% 29.54 in 10.0 mi East 15.0 mph - 0.00 in   Overcast
8:50 PM 33.8 °F 25.8 °F 28.4 °F 81% 29.53 in 10.0 mi East 10.4 mph - 0.00 in   Overcast
8:53 PM 33.1 °F 23.9 °F 30.0 °F 89% 29.57 in 10.0 mi East 12.7 mph - 0.00 in   Overcast
9:53 PM 33.1 °F 23.0 °F 28.9 °F 85% 29.53 in 8.0 mi East 15.0 mph - N/A   Overcast
10:30 PM 33.8 °F 23.9 °F 28.4 °F 81% 29.49 in 10.0 mi East 15.0 mph 21.9 mph N/A   Overcast
10:53 PM 33.1 °F 22.6 °F 28.0 °F 82% 29.52 in 10.0 mi East 16.1 mph 24.2 mph N/A   Overcast
11:04 PM 33.8 °F 24.3 °F 28.4 °F 81% 29.48 in 9.0 mi East 13.8 mph - N/A   Overcast
11:32 PM 33.8 °F 23.2 °F 28.4 °F 81% 29.47 in 2.5 mi East 17.3 mph 24.2 mph 0.00 in Snow Light Snow
11:43 PM 32.0 °F 22.1 °F 28.4 °F 87% 29.47 in 1.5 mi East 13.8 mph 23.0 mph 0.00 in Snow Light Snow
11:53 PM 32.0 °F 22.1 °F 28.9 °F 88% 29.51 in 1.2 mi East 13.8 mph - 0.00 in Snow Light Snow